Regional Weather Roundup
Issued by NWS

Home | Current Version | Previous Version | Graphics & Text | Print | Product List | Glossary On
Versions: 1 2 3 4 5 6 7 8 9 10 11 12 13 14 15 16 17 18 19 20 21 22 23 24 25 26 27 28 29 30 31 32 33 34 35 36 37 38 39 40 41 42 43 44 45 46 47 48 49 50
000
ASUS43 KBIS 280902
RWRND

NORTH DAKOTA REGIONAL WEATHER ROUNDUP
NATIONAL WEATHER SERVICE BISMARCK ND
400 AM CDT THU JUL 28 2016

NOTE: "FAIR" INDICATES FEW OR NO CLOUDS BELOW 12,000 FEET WITH NO
SIGNIFICANT WEATHER AND/OR OBSTRUCTIONS TO VISIBILITY.


NDZ001>003-009>011-017-281000-
NORTHWEST NORTH DAKOTA

CITY           SKY/WX    TMP DP  RH WIND       PRES   REMARKS
WILLISTON      CLOUDY    65  60  84 E9        30.16S
MINOT          CLOUDY    62  57  83 NE5       30.15S
MINOT AFB      MOCLDY    59  56  87 E3        30.15S
$$

NDZ018>021-031>035-040>046-281000-
SOUTHWEST NORTH DAKOTA

CITY           SKY/WX    TMP DP  RH WIND       PRES   REMARKS
BISMARCK       CLOUDY    64  60  87 E6        30.13S
DICKINSON      FOG       58  57  97 E5        30.12S VSB 1
GARRISON         N/A     61  60  97 NE3       30.14F
HETTINGER ARPT CLOUDY    59  58  96 CALM      30.14R
$$

NDZ004>008-012>016-024-026-027-054-281000-
NORTHEAST NORTH DAKOTA

CITY           SKY/WX    TMP DP  RH WIND       PRES   REMARKS
GRAND FORKS    PTCLDY    59  57  93 N8        30.09S
GRND FRKS AFB  PTCLDY    59  56  90 N6        30.11R
DEVILS LAKE    CLEAR     55  53  93 NE5       30.15F
$$

NDZ022-023-025-028>030-036>039-047>053-281000-
SOUTHEAST NORTH DAKOTA

CITY           SKY/WX    TMP DP  RH WIND       PRES   REMARKS
FARGO          CLOUDY    63  60  90 N5        30.06S
JAMESTOWN      MOCLDY    57  56  96 NW6       30.10F
$$




USA.gov is the U.S. government's official web portal to all federal, state and local government web resources and services.